Revelstoke, Canada 16 day weather forecast

Slopes altitude range 510 m - 2225m

Number of lifts: 4 Pistes: -1km

In some cases the lift and piste totals shown are for the ski domain (e.g. Three Valleys) rather than individual resort (e.g. Courchevel)

Overview

The 16 day weather forecast is fully updated 4 times every day.

    • Sun 25 FEB 2018
    • Sun 25
    • -13C -10C
    • Mon 26 FEB 2018
    • Mon 26
    • -15C -13C
    • Tue 27 FEB 2018
    • Tue 27
    • -14C -12C
    • Wed 28 FEB 2018
    • Wed 28
    • -9C -7C
    • Thu 01 MAR 2018
    • Thu 01
    • -9C -8C
    • Fri 02 MAR 2018
    • Fri 02
    • -12C -9C
    • Sat 03 MAR 2018
    • Sat 03
    • -15C -12C
    • Sun 04 MAR 2018
    • Sun 04
    • -18C -15C
    • Mon 05 MAR 2018
    • Mon 05
    • -16C -14C
    • Tue 06 MAR 2018
    • Tue 06
    • -14C -12C
    • Wed 07 MAR 2018
    • Wed 07
    • -7C -4C
    • Thu 08 MAR 2018
    • Thu 08
    • -9C -2C
    • Fri 09 MAR 2018
    • Fri 09
    • -5C 1C
    • Sat 10 MAR 2018
    • Sat 10
    • -14C -4C
    • Sun 11 MAR 2018
    • Sun 11
    • -11C -4C
    • Mon 12 MAR 2018
    • Mon 12
    • -7C -5C

Date:

Time Type 0°C level Temp Chill Snow Cloud Speed Gust Dir Press
3:00 0m -13°C -13_3 0cm 81% 3mph 3mph 1016mB
6:00 0m -14°C -14_4 1cm 83% 4mph 5mph 1015mB
9:00 0m -13°C -13_4 1cm 99% 4mph 5mph 1013mB
12:00 0m -10°C -10_6 2cm 100% 6mph 11mph 1008mB
15:00 12m -9°C -9_7 2cm 100% 7mph 14mph 1004mB
18:00 248m -8°C -8_3 5cm 100% 3mph 5mph 1001mB
21:00 505m -8°C -8_5 1cm 100% 5mph 7mph 1000mB
0:00 378m -8°C -8_4 2cm 100% 4mph 7mph 1001mB
3:00 0m -12°C -12_3 0cm 89% 3mph 4mph 1007mB
6:00 0m -13°C -13_3 1cm 89% 3mph 4mph 1011mB
9:00 0m -14°C -14_3 1cm 65% 3mph 4mph 1014mB
12:00 0m -13°C -13_3 1cm 71% 3mph 3mph 1018mB
15:00 0m -16°C -16_2 0cm 38% 2mph 2mph 1021mB
18:00 19m -9°C -9_4 0cm 51% 4mph 6mph 1020mB
21:00 424m -9°C -9_5 1cm 77% 5mph 7mph 1018mB
0:00 393m -9°C -9_5 1cm 82% 5mph 7mph 1018mB
3:00 0m -14°C -14_3 0cm 39% 3mph 3mph 1022mB
6:00 0m -15°C -15_3 0cm 54% 3mph 4mph 1023mB
9:00 0m -14°C -14_4 1cm 94% 4mph 4mph 1022mB
12:00 0m -12°C -12_4 1cm 97% 4mph 5mph 1021mB
15:00 0m -11°C -11_5 1cm 100% 5mph 8mph 1020mB
18:00 325m -7°C -7_7 1cm 100% 7mph 11mph 1016mB
21:00 740m -7°C -7_7 1cm 100% 7mph 11mph 1013mB
0:00 705m -7°C -7_5 2cm 100% 5mph 8mph 1012mB
3:00 457m -7°C -7_6 1cm 100% 6mph 11mph 1014mB
6:00 427m -7°C -7_6 2cm 99% 6mph 10mph 1014mB
9:00 326m -7°C -7_6 1cm 99% 6mph 11mph 1014mB
12:00 89m -7°C -7_5 1cm 98% 5mph 8mph 1015mB
15:00 0m -9°C -9_4 1cm 99% 4mph 5mph 1015mB
18:00 452m -7°C -7_5 0cm 95% 5mph 7mph 1011mB
21:00 804m -7°C -7_5 1cm 97% 5mph 8mph 1007mB
0:00 785m -7°C -7_5 1cm 97% 5mph 7mph 1005mB
3:00 291m -8°C -8_4 1cm 100% 4mph 5mph 1005mB
6:00 205m -8°C -8_5 1cm 100% 5mph 5mph 1004mB
9:00 154m -9°C -9_5 1cm 99% 5mph 5mph 1003mB
12:00 82m -8°C -8_5 1cm 99% 5mph 5mph 1002mB
15:00 100m -9°C -9_5 1cm 100% 5mph 5mph 1003mB
18:00 668m -5°C -5_4 1cm 99% 4mph 6mph 1002mB
21:00 1036m -5°C -5_4 1cm 100% 4mph 6mph 1001mB
0:00 996m -5°C -5_4 1cm 100% 4mph 6mph 1002mB
3:00 178m -8°C -8_3 0cm 98% 3mph 3mph 1006mB
6:00 22m -9°C -9_3 0cm 95% 3mph 4mph 1008mB
9:00 0m -10°C -10_4 0cm 70% 4mph 5mph 1009mB
12:00 0m -9°C -9_5 0cm 57% 5mph 6mph 1011mB
15:00 0m -12°C -12_6 0cm 35% 6mph 7mph 1013mB
18:00 423m -7°C -7_5 0cm 66% 5mph 8mph 1010mB
21:00 857m -7°C -7_4 0cm 99% 4mph 6mph 1009mB
0:00 847m -7°C -7_4 0cm 96% 4mph 6mph 1009mB
3:00 0m -10°C -10_4 0cm 92% 4mph 5mph 1014mB
6:00 0m -12°C -12_4 0cm 92% 4mph 5mph 1018mB
9:00 0m -13°C -13_4 0cm 98% 4mph 5mph 1021mB
12:00 0m -12°C -12_4 0cm 88% 4mph 5mph 1024mB
15:00 0m -15°C -15_4 0cm 50% 4mph 5mph 1027mB
18:00 286m -8°C -8_3 0cm 61% 3mph 3mph 1024mB
21:00 669m -8°C -8_4 0cm 71% 4mph 5mph 1023mB
0:00 589m -8°C -8_4 1cm 85% 4mph 5mph 1024mB
3:00 0m -13°C -13_3 0cm 58% 3mph 4mph 1028mB
6:00 0m -15°C -15_3 0cm 46% 3mph 4mph 1032mB
9:00 0m -17°C -17_3 0cm 25% 3mph 3mph 1034mB
12:00 0m -15°C -15_3 0cm 14% 3mph 3mph 1036mB
15:00 0m -17°C -17_3 0cm 1% 3mph 3mph 1038mB
18:00 198m -8°C -8_2 0cm 1% 2mph 2mph 1033mB
21:00 607m -8°C -8_4 0cm 47% 4mph 4mph 1030mB
0:00 561m -8°C -8_3 0cm 73% 3mph 3mph 1029mB
3:00 0m -13°C -13_1 0cm 81% 1mph 1mph 1033mB
6:00 0m -15°C -15_2 0cm 65% 2mph 3mph 1035mB
9:00 0m -16°C -16_3 0cm 3% 3mph 3mph 1036mB
12:00 0m -14°C -14_3 0cm 3% 3mph 4mph 1036mB
15:00 0m -16°C -16_3 0cm 1% 3mph 4mph 1035mB
18:00 408m -7°C -7_3 0cm 2% 3mph 3mph 1029mB
21:00 804m -7°C -7_4 0cm 67% 4mph 5mph 1024mB
0:00 786m -7°C -7_4 1cm 83% 4mph 5mph 1022mB
3:00 165m -8°C -8_3 1cm 98% 3mph 3mph 1024mB
6:00 0m -13°C -13_2 1cm 96% 2mph 3mph 1024mB
9:00 0m -14°C -14_1 0cm 63% 1mph 1mph 1025mB
12:00 0m -12°C -12_2 1cm 79% 2mph 3mph 1025mB
15:00 0m -11°C -11_3 1cm 92% 3mph 4mph 1025mB
18:00 509m -6°C -6_5 0cm 67% 5mph 7mph 1021mB
21:00 950m -6°C -6_6 1cm 68% 6mph 9mph 1017mB
0:00 935m -6°C -6_5 1cm 82% 5mph 8mph 1015mB
Afternoon 0.458333mm 0.0625 417m -4°C -4_6 4cm 100% 6mph 12mph 1017mB
Morning 0.1875mm 0.6875 1223m -8°C -8_6 6cm 92% 6mph 10mph 1012mB
Afternoon 0.0520833mm 0.125 343m -2°C -2_6 1cm 82% 6mph 9mph 1011mB
Morning 0.239583mm 0 1610m -8°C -8_9 2cm 99% 9mph 17mph 998mB
Afternoon 0.807292mm 2.25 750m 1°C 1_11 18cm 100% 11mph 20mph 1008mB
Morning 0.0677083mm 0.625 895m -11°C -11_6 5cm 49% 6mph 9mph 1010mB
Afternoon 0.00520833mm 0.0625 0m -4°C -4_6 0cm 33% 6mph 6mph 1016mB
Morning 0.0677083mm 0.0625 867m -16°C -16_5 1cm 96% 5mph 7mph 1011mB
Afternoon 0.0625mm 0.0625 0m -4°C -4_5 1cm 87% 5mph 6mph 1026mB
Morning 0.0885417mm 0.0625 798m -13°C -13_10 1cm 64% 10mph 17mph 1022mB
Afternoon 0.322917mm 0.0625 388m -5°C -5_6 3cm 100% 6mph 11mph 1027mB
Morning 0.0625mm 0.0625 958m -9°C -9_6 1cm 85% 6mph 9mph 1025mB

16 day outlook at a glance

Forecast issued: 25/02/2018 07:18:30

Chat

Your comments and questions. In a resort? Let us know what it's like!


Characters left 250

For terms and conditions see Readers Comments on the Cookie and privacy policy page.